![]() |
EMODnet Physics ERDDAP
Easier access to scientific data |
log in|
Brought to you by EMODnet Physics |
| Dataset Title: | NDBC - Collection of dew point temperature (DEWT) TimeSeries - IN SITU MultiPointTimeSeriesObservation
|
| Institution: | NDBC (Dataset ID: TS_DEWT_NDBC) |
| Information: | Summary
| License
| FGDC
| ISO 19115
| Metadata
| Background
| Subset
| Data Access Form
| Make a graph
|
| Name | Last modified | Size | Description | |
|---|---|---|---|---|
| Parent Directory | - | - | ||
| CBLO1_TS_DEWT_012008.nc | 29-Oct-2024 16:13 | 429912 | ||
| CBLO1_TS_DEWT_012009.nc | 29-Oct-2024 17:07 | 429906 | ||
| CBLO1_TS_DEWT_012010.nc | 29-Oct-2024 18:20 | 429913 | ||
| CBLO1_TS_DEWT_012011.nc | 29-Oct-2024 19:30 | 451020 | ||
| CBLO1_TS_DEWT_012012.nc | 29-Oct-2024 20:38 | 436236 | ||
| CBLO1_TS_DEWT_012013.nc | 29-Oct-2024 21:49 | 429914 | ||
| CBLO1_TS_DEWT_012016.nc | 29-Oct-2024 23:07 | 429883 | ||
| CBLO1_TS_DEWT_012017.nc | 30-Oct-2024 00:00 | 429908 | ||
| CBLO1_TS_DEWT_012018.nc | 30-Oct-2024 01:05 | 429898 | ||
| CBLO1_TS_DEWT_012019.nc | 30-Oct-2024 02:11 | 429888 | ||
| CBLO1_TS_DEWT_012023.nc | 30-Oct-2024 03:28 | 429910 | ||
| CBLO1_TS_DEWT_022009.nc | 29-Oct-2024 17:14 | 427536 | ||
| CBLO1_TS_DEWT_022010.nc | 29-Oct-2024 18:26 | 428876 | ||
| CBLO1_TS_DEWT_022011.nc | 29-Oct-2024 19:37 | 429869 | ||
| CBLO1_TS_DEWT_022012.nc | 29-Oct-2024 20:43 | 429347 | ||
| CBLO1_TS_DEWT_022013.nc | 29-Oct-2024 21:56 | 429359 | ||
| CBLO1_TS_DEWT_022016.nc | 29-Oct-2024 23:11 | 429367 | ||
| CBLO1_TS_DEWT_022017.nc | 30-Oct-2024 00:05 | 429363 | ||
| CBLO1_TS_DEWT_022018.nc | 30-Oct-2024 01:11 | 429323 | ||
| CBLO1_TS_DEWT_022019.nc | 30-Oct-2024 02:16 | 429363 | ||
| CBLO1_TS_DEWT_022023.nc | 30-Oct-2024 03:34 | 429352 | ||
| CBLO1_TS_DEWT_032009.nc | 29-Oct-2024 17:21 | 429357 | ||
| CBLO1_TS_DEWT_032010.nc | 29-Oct-2024 18:31 | 422916 | ||
| CBLO1_TS_DEWT_032011.nc | 29-Oct-2024 19:43 | 449221 | ||
| CBLO1_TS_DEWT_032012.nc | 29-Oct-2024 20:49 | 449977 | ||
| CBLO1_TS_DEWT_032013.nc | 29-Oct-2024 22:02 | 448634 | ||
| CBLO1_TS_DEWT_032017.nc | 30-Oct-2024 00:11 | 449710 | ||
| CBLO1_TS_DEWT_032018.nc | 30-Oct-2024 01:16 | 429363 | ||
| CBLO1_TS_DEWT_032019.nc | 30-Oct-2024 02:21 | 429357 | ||
| CBLO1_TS_DEWT_032020.nc | 30-Oct-2024 02:37 | 429567 | ||
| CBLO1_TS_DEWT_032022.nc | 30-Oct-2024 02:42 | 429567 | ||
| CBLO1_TS_DEWT_032023.nc | 30-Oct-2024 03:39 | 450926 | ||
| CBLO1_TS_DEWT_042009.nc | 29-Oct-2024 17:26 | 450529 | ||
| CBLO1_TS_DEWT_042010.nc | 29-Oct-2024 18:37 | 450513 | ||
| CBLO1_TS_DEWT_042011.nc | 29-Oct-2024 19:49 | 429570 | ||
| CBLO1_TS_DEWT_042012.nc | 29-Oct-2024 20:55 | 441534 | ||
| CBLO1_TS_DEWT_042013.nc | 29-Oct-2024 22:07 | 429570 | ||
| CBLO1_TS_DEWT_042016.nc | 29-Oct-2024 23:15 | 429571 | ||
| CBLO1_TS_DEWT_042017.nc | 30-Oct-2024 00:18 | 449323 | ||
| CBLO1_TS_DEWT_042018.nc | 30-Oct-2024 01:22 | 429573 | ||
| CBLO1_TS_DEWT_042022.nc | 30-Oct-2024 02:48 | 429563 | ||
| CBLO1_TS_DEWT_042023.nc | 30-Oct-2024 03:44 | 432430 | ||
| CBLO1_TS_DEWT_052009.nc | 29-Oct-2024 17:33 | 429570 | ||
| CBLO1_TS_DEWT_052010.nc | 29-Oct-2024 18:44 | 429350 | ||
| CBLO1_TS_DEWT_052011.nc | 29-Oct-2024 19:55 | 421124 | ||
| CBLO1_TS_DEWT_052012.nc | 29-Oct-2024 21:00 | 429568 | ||
| CBLO1_TS_DEWT_052013.nc | 29-Oct-2024 22:14 | 429565 | ||
| CBLO1_TS_DEWT_052016.nc | 29-Oct-2024 23:19 | 429551 | ||
| CBLO1_TS_DEWT_052017.nc | 30-Oct-2024 00:23 | 429566 | ||
| CBLO1_TS_DEWT_052018.nc | 30-Oct-2024 01:28 | 429685 | ||
| CBLO1_TS_DEWT_052023.nc | 30-Oct-2024 03:48 | 429692 | ||
| CBLO1_TS_DEWT_062008.nc | 29-Oct-2024 16:20 | 429686 | ||
| CBLO1_TS_DEWT_062009.nc | 29-Oct-2024 17:40 | 429679 | ||
| CBLO1_TS_DEWT_062010.nc | 29-Oct-2024 18:50 | 429694 | ||
| CBLO1_TS_DEWT_062011.nc | 29-Oct-2024 20:00 | 429685 | ||
| CBLO1_TS_DEWT_062012.nc | 29-Oct-2024 21:05 | 428205 | ||
| CBLO1_TS_DEWT_062013.nc | 29-Oct-2024 22:20 | 429700 | ||
| CBLO1_TS_DEWT_062016.nc | 29-Oct-2024 23:24 | 451070 | ||
| CBLO1_TS_DEWT_062017.nc | 30-Oct-2024 00:29 | 450001 | ||
| CBLO1_TS_DEWT_062018.nc | 30-Oct-2024 01:34 | 450443 | ||
| CBLO1_TS_DEWT_062019.nc | 30-Oct-2024 02:26 | 451094 | ||
| CBLO1_TS_DEWT_062023.nc | 30-Oct-2024 03:53 | 450500 | ||
| CBLO1_TS_DEWT_072008.nc | 29-Oct-2024 16:27 | 429693 | ||
| CBLO1_TS_DEWT_072009.nc | 29-Oct-2024 17:46 | 429693 | ||
| CBLO1_TS_DEWT_072010.nc | 29-Oct-2024 18:55 | 429911 | ||
| CBLO1_TS_DEWT_072011.nc | 29-Oct-2024 20:06 | 443762 | ||
| CBLO1_TS_DEWT_072012.nc | 29-Oct-2024 21:11 | 451700 | ||
| CBLO1_TS_DEWT_072013.nc | 29-Oct-2024 22:25 | 451227 | ||
| CBLO1_TS_DEWT_072016.nc | 29-Oct-2024 23:29 | 450507 | ||
| CBLO1_TS_DEWT_072017.nc | 30-Oct-2024 00:35 | 429910 | ||
| CBLO1_TS_DEWT_072018.nc | 30-Oct-2024 01:39 | 444815 | ||
| CBLO1_TS_DEWT_072019.nc | 30-Oct-2024 02:31 | 429909 | ||
| CBLO1_TS_DEWT_072022.nc | 30-Oct-2024 02:53 | 429607 | ||
| CBLO1_TS_DEWT_072023.nc | 30-Oct-2024 03:58 | 449935 | ||
| CBLO1_TS_DEWT_082007.nc | 29-Oct-2024 15:40 | 429912 | ||
| CBLO1_TS_DEWT_082008.nc | 29-Oct-2024 16:33 | 429909 | ||
| CBLO1_TS_DEWT_082009.nc | 29-Oct-2024 17:52 | 450585 | ||
| CBLO1_TS_DEWT_082010.nc | 29-Oct-2024 19:01 | 429868 | ||
| CBLO1_TS_DEWT_082011.nc | 29-Oct-2024 20:11 | 429912 | ||
| CBLO1_TS_DEWT_082012.nc | 29-Oct-2024 21:18 | 429916 | ||
| CBLO1_TS_DEWT_082014.nc | 29-Oct-2024 22:35 | 429908 | ||
| CBLO1_TS_DEWT_082015.nc | 29-Oct-2024 22:40 | 429912 | ||
| CBLO1_TS_DEWT_082016.nc | 29-Oct-2024 23:33 | 429888 | ||
| CBLO1_TS_DEWT_082017.nc | 30-Oct-2024 00:39 | 429350 | ||
| CBLO1_TS_DEWT_082018.nc | 30-Oct-2024 01:44 | 429362 | ||
| CBLO1_TS_DEWT_082022.nc | 30-Oct-2024 02:59 | 429364 | ||
| CBLO1_TS_DEWT_082023.nc | 30-Oct-2024 04:02 | 429339 | ||
| CBLO1_TS_DEWT_092007.nc | 29-Oct-2024 15:47 | 429314 | ||
| CBLO1_TS_DEWT_092008.nc | 29-Oct-2024 16:40 | 429366 | ||
| CBLO1_TS_DEWT_092009.nc | 29-Oct-2024 17:57 | 425294 | ||
| CBLO1_TS_DEWT_092010.nc | 29-Oct-2024 19:07 | 429361 | ||
| CBLO1_TS_DEWT_092011.nc | 29-Oct-2024 20:17 | 450495 | ||
| CBLO1_TS_DEWT_092012.nc | 29-Oct-2024 21:24 | 449497 | ||
| CBLO1_TS_DEWT_092015.nc | 29-Oct-2024 22:45 | 450233 | ||
| CBLO1_TS_DEWT_092016.nc | 29-Oct-2024 23:38 | 449743 | ||
| CBLO1_TS_DEWT_092017.nc | 30-Oct-2024 00:45 | 441440 | ||
| CBLO1_TS_DEWT_092018.nc | 30-Oct-2024 01:50 | 429355 | ||
| CBLO1_TS_DEWT_092022.nc | 30-Oct-2024 03:05 | 429363 | ||
| CBLO1_TS_DEWT_092023.nc | 30-Oct-2024 04:08 | 429565 | ||
| CBLO1_TS_DEWT_102007.nc | 29-Oct-2024 15:53 | 449052 | ||
| CBLO1_TS_DEWT_102008.nc | 29-Oct-2024 16:46 | 449055 | ||
| CBLO1_TS_DEWT_102009.nc | 29-Oct-2024 18:02 | 448975 | ||
| CBLO1_TS_DEWT_102010.nc | 29-Oct-2024 19:12 | 448733 | ||
| CBLO1_TS_DEWT_102011.nc | 29-Oct-2024 20:22 | 429568 | ||
| CBLO1_TS_DEWT_102012.nc | 29-Oct-2024 21:29 | 429566 | ||
| CBLO1_TS_DEWT_102013.nc | 29-Oct-2024 22:30 | 429565 | ||
| CBLO1_TS_DEWT_102015.nc | 29-Oct-2024 22:50 | 423884 | ||
| CBLO1_TS_DEWT_102016.nc | 29-Oct-2024 23:44 | 449304 | ||
| CBLO1_TS_DEWT_102017.nc | 30-Oct-2024 00:49 | 429566 | ||
| CBLO1_TS_DEWT_102018.nc | 30-Oct-2024 01:56 | 429569 | ||
| CBLO1_TS_DEWT_102022.nc | 30-Oct-2024 03:10 | 429573 | ||
| CBLO1_TS_DEWT_102023.nc | 30-Oct-2024 04:12 | 429563 | ||
| CBLO1_TS_DEWT_112007.nc | 29-Oct-2024 16:00 | 429570 | ||
| CBLO1_TS_DEWT_112008.nc | 29-Oct-2024 16:54 | 429563 | ||
| CBLO1_TS_DEWT_112009.nc | 29-Oct-2024 18:08 | 429570 | ||
| CBLO1_TS_DEWT_112010.nc | 29-Oct-2024 19:18 | 429568 | ||
| CBLO1_TS_DEWT_112011.nc | 29-Oct-2024 20:27 | 429546 | ||
| CBLO1_TS_DEWT_112012.nc | 29-Oct-2024 21:35 | 425594 | ||
| CBLO1_TS_DEWT_112015.nc | 29-Oct-2024 22:56 | 429673 | ||
| CBLO1_TS_DEWT_112016.nc | 29-Oct-2024 23:49 | 429685 | ||
| CBLO1_TS_DEWT_112017.nc | 30-Oct-2024 00:55 | 429651 | ||
| CBLO1_TS_DEWT_112018.nc | 30-Oct-2024 02:02 | 429692 | ||
| CBLO1_TS_DEWT_112022.nc | 30-Oct-2024 03:16 | 429648 | ||
| CBLO1_TS_DEWT_112023.nc | 30-Oct-2024 04:17 | 429687 | ||
| CBLO1_TS_DEWT_122007.nc | 29-Oct-2024 16:07 | 424598 | ||
| CBLO1_TS_DEWT_122008.nc | 29-Oct-2024 17:01 | 429685 | ||
| CBLO1_TS_DEWT_122009.nc | 29-Oct-2024 18:15 | 451977 | ||
| CBLO1_TS_DEWT_122010.nc | 29-Oct-2024 19:24 | 450337 | ||
| CBLO1_TS_DEWT_122011.nc | 29-Oct-2024 20:32 | 449917 | ||
| CBLO1_TS_DEWT_122012.nc | 29-Oct-2024 21:43 | 419570 | ||
| CBLO1_TS_DEWT_122015.nc | 29-Oct-2024 23:01 | 429692 | ||
| CBLO1_TS_DEWT_122016.nc | 29-Oct-2024 23:54 | 429698 | ||
| CBLO1_TS_DEWT_122017.nc | 30-Oct-2024 01:00 | 429685 | ||
| CBLO1_TS_DEWT_122018.nc | 30-Oct-2024 02:06 | 429914 | ||
| CBLO1_TS_DEWT_122022.nc | 30-Oct-2024 03:21 | 449617 | ||
| CBLO1_TS_DEWT_122023.nc | 30-Oct-2024 04:22 | 430185 | ||